Salem, IL

10:46 PM CST on January 23, 2018 (GMT -0600)
Salem-Leckrone

Weather History for KSLO - May, 2014

Change the Weather History Date:

Wednesday, May 7, 2014

  Actual Average Record
Temperature  
Mean Temperature 72 °F -  
Max Temperature 83 °F 74 °F 89 °F (1986)
Min Temperature 63 °F 51 °F 35 °F (1992)
Cooling Degree Days 8    
Growing Degree Days 22 (Base 50)    
Moisture  
Dew Point 60 °F    
Average Humidity 62    
Maximum Humidity 86    
Minimum Humidity 44    
Precipitation  
Precipitation 0.00 in - - ()
Sea Level Pressure  
Sea Level Pressure 29.85 in    
Wind  
Wind Speed 9 mph (South)    
Max Wind Speed 20 mph    
Max Gust Speed 30 mph    
Visibility 10 miles    
Events      
Averages and records for this station are not official NWS values.
T = Trace of Precipitation, MM = Missing Value Source: NWS Daily Summary

Daily Weather History Graph

Daily Weather History Graph

Search for Another Location

Airport or City:

Trip Planner

Search our weather history database for the weather conditions in past years. The results will help you decide how hot, cold, wet, or windy it might be!

Date:

Astronomy

May. 07, 2014 Rise Set
Actual Time 5:51 AM CDT 7:53 PM CDT
Civil Twilight 5:22 AM CDT 8:22 PM CDT
Nautical Twilight 4:47 AM CDT 8:58 PM CDT
Astronomical Twilight 4:08 AM CDT 9:37 PM CDT
Moon 1:03 PM CDT (5/7) 1:46 AM CDT (5/7)
Length of Visible Light 15h 00m
Length of Day
14h 01m
First Quarter, 55% of the Moon is Illuminated
May 7
First Quarter
May 14
Full
May 21
Last Quarter
May 28
New
Jun 5
First Quarter

Hourly Weather History & Observations

Time (CDT) Temp. Heat Index Dew Point Humidity Pressure Visibility Wind Dir Wind Speed Gust Speed Precip Events Conditions
12:15 AM 72.1 °F - 53.6 °F 52% 29.80 in 10.0 mi SSE 6.9 mph - N/A   Clear
12:35 AM 72.1 °F - 53.8 °F 52% 29.80 in 10.0 mi SSE 6.9 mph - N/A   Clear
12:55 AM 71.4 °F - 54.5 °F 55% 29.80 in 10.0 mi SSE 6.9 mph - N/A   Clear
1:15 AM 70.9 °F - 54.7 °F 56% 29.79 in 10.0 mi SSE 8.1 mph - N/A   Clear
1:35 AM 70.7 °F - 54.9 °F 57% 29.79 in 10.0 mi SSE 6.9 mph - N/A   Clear
1:55 AM 70.2 °F - 55.4 °F 59% 29.79 in 10.0 mi South 8.1 mph - N/A   Clear
2:15 AM 68.4 °F - 55.8 °F 64% 29.80 in 10.0 mi SSE 5.8 mph - N/A   Clear
2:35 AM 68.4 °F - 55.8 °F 64% 29.81 in 10.0 mi SSE 3.5 mph - N/A   Clear
2:55 AM 68.0 °F - 55.4 °F 64% 29.80 in 10.0 mi SE 5.8 mph - N/A   Clear
3:15 AM 67.1 °F - 55.9 °F 67% 29.81 in 10.0 mi ESE 3.5 mph - N/A   Clear
3:35 AM 66.4 °F - 56.1 °F 69% 29.80 in 10.0 mi SSE 6.9 mph - N/A   Clear
3:55 AM 67.1 °F - 56.3 °F 68% 29.81 in 10.0 mi SSE 5.8 mph - N/A   Clear
4:15 AM 66.4 °F - 56.5 °F 70% 29.81 in 10.0 mi SE 4.6 mph - N/A   Clear
4:35 AM 65.3 °F - 56.7 °F 74% 29.81 in 10.0 mi SE 4.6 mph - N/A   Clear
4:55 AM 64.8 °F - 56.7 °F 75% 29.82 in 10.0 mi SE 5.8 mph - N/A   Clear
5:15 AM 64.8 °F - 56.8 °F 75% 29.83 in 10.0 mi SE 4.6 mph - N/A   Clear
5:35 AM 63.5 °F - 56.8 °F 79% 29.83 in 10.0 mi SE 5.8 mph - N/A   Clear
5:55 AM 63.1 °F - 56.8 °F 80% 29.83 in 10.0 mi SE 5.8 mph - N/A   Clear
6:15 AM 63.0 °F - 57.2 °F 81% 29.83 in 10.0 mi SE 5.8 mph - N/A   Clear
6:35 AM 63.9 °F - 57.6 °F 80% 29.84 in 10.0 mi SSE 3.5 mph - N/A   Clear
6:55 AM 64.2 °F - 58.1 °F 80% 29.85 in 10.0 mi SE 3.5 mph - N/A   Clear
7:15 AM 63.9 °F - 59.7 °F 86% 29.86 in 10.0 mi Calm Calm - N/A   Clear
7:35 AM 66.9 °F - 59.5 °F 77% 29.88 in 10.0 mi Calm Calm - N/A   Clear
7:55 AM 68.9 °F - 60.8 °F 75% 29.88 in 10.0 mi Calm Calm - N/A   Clear
8:15 AM 70.0 °F - 61.0 °F 73% 29.88 in 10.0 mi South 4.6 mph - N/A   Clear
8:35 AM 72.1 °F - 62.4 °F 71% 29.88 in 10.0 mi South 9.2 mph - N/A   Clear
8:55 AM 72.3 °F - 62.4 °F 71% 29.88 in 10.0 mi SSW 10.4 mph - N/A   Clear
9:15 AM 73.9 °F - 63.0 °F 68% 29.88 in 10.0 mi South 10.4 mph 16.1 mph N/A   Clear
9:35 AM 75.4 °F - 63.7 °F 67% 29.87 in 10.0 mi SSW 12.7 mph 20.7 mph N/A   Clear
9:55 AM 76.1 °F - 64.0 °F 66% 29.87 in 10.0 mi SSW 18.4 mph - N/A   Clear
10:15 AM 77.0 °F - 64.4 °F 65% 29.86 in 10.0 mi South 12.7 mph 16.1 mph N/A   Clear
10:35 AM 77.4 °F - 63.5 °F 62% 29.87 in 10.0 mi South 16.1 mph 20.7 mph N/A   Clear
10:55 AM 77.9 °F - 63.9 °F 62% 29.87 in 10.0 mi South 15.0 mph - N/A   Clear
11:15 AM 78.4 °F - 64.2 °F 62% 29.88 in 10.0 mi SSW 16.1 mph - N/A   Clear
11:35 AM 78.3 °F - 63.7 °F 61% 29.88 in 10.0 mi South 12.7 mph 17.3 mph N/A   Clear
11:55 AM 78.8 °F - 65.5 °F 64% 29.89 in 10.0 mi SSW 12.7 mph 20.7 mph N/A   Clear
12:15 PM 80.1 °F 82.0 °F 65.3 °F 61% 29.88 in 10.0 mi South 13.8 mph 20.7 mph N/A   Clear
12:35 PM 79.7 °F - 64.8 °F 60% 29.87 in 10.0 mi South 12.7 mph 19.6 mph N/A   Clear
12:55 PM 79.2 °F - 63.5 °F 59% 29.85 in 10.0 mi SSE 10.4 mph 17.3 mph N/A   Clear
1:15 PM 78.6 °F - 62.6 °F 58% 29.84 in 10.0 mi South 10.4 mph 21.9 mph N/A   Clear
1:35 PM 80.1 °F 81.8 °F 64.4 °F 59% 29.85 in 10.0 mi South 13.8 mph 19.6 mph N/A   Clear
1:55 PM 79.7 °F - 64.4 °F 59% 29.86 in 10.0 mi South 16.1 mph 21.9 mph N/A   Clear
2:15 PM 79.7 °F - 64.8 °F 60% 29.88 in 10.0 mi South 19.6 mph 24.2 mph N/A   Clear
2:35 PM 79.2 °F - 65.1 °F 62% 29.87 in 10.0 mi South 19.6 mph 25.3 mph N/A   Clear
2:55 PM 79.2 °F - 64.8 °F 61% 29.83 in 10.0 mi South 11.5 mph 23.0 mph N/A   Clear
3:15 PM 79.3 °F - 64.6 °F 60% 29.81 in 10.0 mi SE 9.2 mph 21.9 mph N/A   Clear
3:35 PM 79.7 °F - 64.4 °F 59% 29.81 in 10.0 mi South 13.8 mph 21.9 mph N/A   Clear
3:55 PM 79.7 °F - 63.7 °F 58% 29.80 in 10.0 mi SSE 13.8 mph 23.0 mph N/A   Clear
4:15 PM 80.6 °F 82.4 °F 64.9 °F 59% 29.83 in 10.0 mi SSW 15.0 mph 19.6 mph N/A   Clear
4:35 PM 82.6 °F 84.3 °F 65.1 °F 55% 29.83 in 10.0 mi SSW 15.0 mph 20.7 mph N/A   Clear
4:55 PM 82.9 °F 84.6 °F 64.9 °F 54% 29.83 in 10.0 mi South 12.7 mph 18.4 mph N/A   Clear
5:15 PM 82.4 °F 83.7 °F 63.5 °F 53% 29.83 in 10.0 mi South 15.0 mph 25.3 mph N/A   Clear
5:35 PM 82.0 °F 83.1 °F 62.8 °F 52% 29.83 in 10.0 mi South 17.3 mph 24.2 mph N/A   Clear
5:55 PM 81.9 °F 82.8 °F 62.2 °F 51% 29.84 in 10.0 mi South 19.6 mph 27.6 mph N/A   Clear
6:15 PM 81.7 °F 82.2 °F 60.1 °F 48% 29.84 in 10.0 mi South 18.4 mph 29.9 mph N/A   Clear
6:35 PM 81.5 °F 81.8 °F 59.5 °F 47% 29.84 in 10.0 mi South 17.3 mph 27.6 mph N/A   Clear
6:55 PM 81.1 °F 81.4 °F 58.3 °F 46% 29.84 in 10.0 mi South 18.4 mph 24.2 mph N/A   Clear
7:15 PM 81.0 °F 81.0 °F 57.4 °F 44% 29.85 in 10.0 mi South 16.1 mph 21.9 mph N/A   Clear
7:35 PM 79.7 °F - 58.3 °F 48% 29.85 in 10.0 mi South 10.4 mph 16.1 mph N/A   Clear
7:55 PM 78.8 °F - 59.0 °F 51% 29.85 in 10.0 mi South 10.4 mph - N/A   Clear
8:15 PM 78.1 °F - 59.2 °F 52% 29.85 in 10.0 mi South 11.5 mph 17.3 mph N/A   Clear
8:35 PM 77.7 °F - 59.2 °F 53% 29.86 in 10.0 mi South 9.2 mph 17.3 mph N/A   Clear
8:55 PM 77.2 °F - 59.4 °F 54% 29.86 in 10.0 mi South 9.2 mph - N/A   Clear
9:15 PM 77.0 °F - 59.4 °F 54% 29.87 in 10.0 mi South 10.4 mph - N/A   Clear
9:35 PM 76.3 °F - 59.9 °F 57% 29.88 in 10.0 mi South 8.1 mph - N/A   Clear
9:55 PM 75.0 °F - 59.9 °F 59% 29.88 in 10.0 mi South 8.1 mph - N/A   Clear
10:15 PM 74.3 °F - 59.9 °F 61% 29.89 in 10.0 mi South 8.1 mph - N/A   Clear
10:35 PM 74.3 °F - 60.1 °F 61% 29.88 in 10.0 mi South 8.1 mph - N/A   Clear
10:55 PM 73.9 °F - 60.4 °F 63% 29.88 in 10.0 mi South 8.1 mph - N/A   Clear
11:15 PM 74.3 °F - 60.8 °F 63% 29.88 in 10.0 mi South 8.1 mph - N/A   Clear
11:35 PM 73.4 °F - 60.8 °F 65% 29.88 in 10.0 mi South 8.1 mph - N/A   Clear
11:55 PM 73.8 °F - 60.8 °F 64% 29.89 in 10.0 mi South 9.2 mph - N/A   Clear